Starlink 11515

operational
NORAD ID: 62556 Int'l Des: 2025-006 Owner: SPXS Country: US Constellation: starlink
LEOCIRCULAR

Über Starlink 11515

Beschreibung wird geladen...

Live-Position

3D-Globus wird geladen...

Nächste Überflüge

Höhenverlauf

Altitude vs Time

uPlot chart will show altitude changes over time

Zweizeiliger Elementsatz

1 62556U 25006C 25350.23502358 .00193432 00000-0 14714-2 0 9991
2 62556 43.0005 283.2477 0002275 279.0340 81.0271 15.70916399 53470
Epoch: 16. Dez. 2025 • Age: 28 hours

Aktueller Status

Höhe 354.0 km
Geschwindigkeit 7.70 km/s
Subsatellitenpunkt 6.26°N, 59.67°E
Startdatum 10. Jan. 2025
Alter 0.9 years
Typ internet

Technische Details

Klassifizierung Payload
Masse 960.00 kg
Trockenmasse 910.00 kg
Gesamtmasse 960.00 kg
Länge 0.30 m
Durchmesser 4.10 m
Spannweite 29.00 m
Form Box + pan
Hersteller SPXS
Bus-Typ Starlink V2MD
Phasenstatus In Orbit
Besitzer/Staat SPXS/US

Große Konstellationen

Loading constellations...